星链-2488 (STARLINK-2488 )

导读 | 豆包AI

STARLINK-2488是美国太空探索技术公司(SpaceX)星链(Starlink)计划中的一颗互联网卫星,于北京时间2021年4月7日发射入轨。星链计划旨在通过部署近地轨道卫星星座,为全球偏远、基础设施匮乏地区提供高速低延迟宽带互联网服务。作为星座中的一员,STARLINK-2488助力扩展星链网络覆盖,推动卫星互联网的全球化普及。

基本信息
目录编号:
48145
目录名称:
STARLINK-2488
国际标识:
2021-027BF
轨道中心:
EARTH
卫星名称:
星链-2488
卫星全名:
星链-2488 (STARLINK-2488 )
卫星状态:
在轨 (已飞行1802 天)
发射日期:
2021-04-07 UTC
国别 :
美国 (US)
星等 :
--
轨道信息
数据来源 国际轨道数据
星历时间: 2026-03-14T08:00:02+0800
15小时前
查看轨道信息
半长轴: 6657.464km
偏心率: 0.0004061
轨道倾角: 53.036°
近地点辐角 89.921°
升交点赤经 85.926°
平近点角 65.299°
近地点: 276.623km
远地点: 282.031km
周期: 90.100分钟
每日圈数: 15.982311
详细信息
固有亮度:
5
最大亮度:
2.5
卫星平台:
Starlink V1.0
覆盖范围:
全球
运营商:
太空探索技术公司
运营商所在国:
美国
制造商(研发单位):
太空探索技术公司
制造商所在国:
美国
使用方式:
暂无
卫星简介
星链(Starlink)计划是由太空探索技术公司(SpaceX)提出的一个巨型低轨卫星互联网星座项目,计划在2019年至2024年间在太空搭建由约1.2万颗卫星组成的“星链”网络,其中1584颗将部署在地球上空550千米处的近地轨道,并从2020年开始工作。该卫星仍在工作。
2D轨道图
3D轨道图
轨道高度分析图
轨道倾角分析图
轨道综合分析图
查看轨道综合分析图